GW3691 Weather Reports


Display with metric or nautical units.
time (UTC)temp
F
wind
direction
speed
MPH
gust
MPH
rain 1hr
in
rain 24hr
in
rain mn
in
humidity
%
barometer
mb
20260901200920 86 84 4.0 6.0 0.00 0.00 0.00 80 1020.4
20260901200415 86 150 2.0 2.0 0.00 0.00 0.00 80 1020.1
20260901195914 86 117 0.0 1.0 0.00 0.00 0.00 80 1020.2
20260901195413 87 149 0.0 1.0 0.00 0.00 0.00 78 1020.2
20260901194908 88 4 3.0 6.0 0.00 0.00 0.00 76 1020.4
20260901194402 89 131 1.0 2.0 0.00 0.00 0.00 76 1020.4
20260901193859 89 111 3.0 3.0 0.00 0.00 0.00 75 1020.4
20260901193357 89 99 3.0 3.0 0.00 0.00 0.00 75 1020.6
20260901192852 89 131 0.0 1.0 0.00 0.00 0.00 75 1020.3
20260901192348 90 96 1.0 2.0 0.00 0.00 0.00 73 1020.4
20260901191844 92 66 2.0 2.0 0.00 0.00 0.00 70 1020.4
20260901191339 93 168 1.0 1.0 0.00 0.00 0.00 69 1020.4
20260901190835 92 147 1.0 1.0 0.00 0.00 0.00 68 1020.2
20260901190334 91 139 4.0 5.0 0.00 0.00 0.00 68 1020.4
20260901185832 91 181 1.0 2.0 0.00 0.00 0.00 69 1020.2
20260901185326 91 150 2.0 2.0 0.00 0.00 0.00 71 1020.4
20260901184822 90 77 2.0 3.0 0.00 0.00 0.00 73 1020.1
20260901184317 91 79 3.0 3.0 0.00 0.00 0.00 71 1020.1
20260901183812 91 101 2.0 2.0 0.00 0.00 0.00 70 1020.3
20260901183306 91 54 3.0 6.0 0.00 0.00 0.00 72 1020.3
20260901182803 91 65 2.0 3.0 0.00 0.00 0.00 74 1020.6
20260901182305 91 139 1.0 1.0 0.00 0.00 0.00 72 1020.3
20260901181756 89 154 1.0 1.0 0.00 0.00 0.00 74 1020.5
20260901181251 89 91 5.0 7.0 0.00 0.00 0.00 72 1020.6
20260901180750 90 91 3.0 5.0 0.00 0.00 0.00 71 1020.7
20260901180250 90 308 2.0 3.0 0.00 0.00 0.00 71 1020.9
20260901175749 91 130 2.0 3.0 0.00 0.00 0.00 71 1020.9
20260901175244 91 162 3.0 5.0 0.00 0.00 0.00 70 1020.8
20260901174738 92 119 2.0 3.0 0.00 0.00 0.00 69 1020.8
20260901174229 90 49 2.0 2.0 0.00 0.00 0.00 71 1021.0
20260901173725 90 138 1.0 1.0 0.00 0.00 0.00 72 1021.0
20260901173219 91 108 0.0 1.0 0.00 0.00 0.00 69 1021.0
20260901172716 91 118 1.0 3.0 0.00 0.00 0.00 71 1021.2
20260901172215 90 101 1.0 1.0 0.00 0.00 0.00 71 1021.5
20260901171713 90 80 2.0 3.0 0.00 0.00 0.00 71 1021.3
20260901171213 92 97 1.0 2.0 0.00 0.00 0.00 67 1021.4
20260901170712 91 124 0.0 1.0 0.00 0.00 0.00 71 1021.6
20260901170207 90 111 3.0 5.0 0.00 0.00 0.00 71 1021.2
20260901165705 91 114 3.0 3.0 0.00 0.00 0.00 70 1021.4
20260901165155 91 113 2.0 2.0 0.00 0.00 0.00 68 1021.4
20260901164652 89 98 0.0 0.0 0.00 0.00 0.00 72 1021.4
20260901164152 90 102 3.0 6.0 0.00 0.00 0.00 70 1021.4
20260901163647 89 90 3.0 5.0 0.00 0.00 0.00 72 1021.4
20260901163146 88 124 1.0 1.0 0.00 0.00 0.00 73 1021.3
20260901162642 88 114 2.0 3.0 0.00 0.00 0.00 75 1021.6
20260901162141 89 102 0.0 0.0 0.00 0.00 0.00 76 1021.7
20260901161640 89 153 1.0 2.0 0.00 0.00 0.00 74 1021.6
20260901161139 88 118 3.0 5.0 0.00 0.00 0.00 76 1021.7
20260901160636 88 98 0.0 0.0 0.00 0.00 0.00 76 1021.5
20260901160131 88 53 0.0 1.0 0.00 0.00 0.00 75 1021.9
20260901155630 87 134 1.0 2.0 0.00 0.00 0.00 75 1021.9
20260901155125 89 116 2.0 2.0 0.00 0.00 0.00 73 1021.6
20260901154626 88 133 2.0 2.0 0.00 0.00 0.00 75 1021.8
20260901154121 89 109 2.0 3.0 0.00 0.00 0.00 74 1021.7
20260901153615 88 153 1.0 1.0 0.00 0.00 0.00 74 1021.8
20260901153109 88 174 2.0 2.0 0.00 0.00 0.00 74 1021.9
20260901152605 88 133 2.0 2.0 0.00 0.00 0.00 74 1021.8
20260901152103 88 117 4.0 5.0 0.00 0.00 0.00 74 1021.8
20260901151559 88 62 2.0 2.0 0.00 0.00 0.00 73 1021.6
20260901151058 88 132 2.0 3.0 0.00 0.00 0.00 73 1021.8
20260901150556 88 111 1.0 1.0 0.00 0.00 0.00 74 1021.9
20260901150049 88 157 1.0 2.0 0.00 0.00 0.00 71 1021.9
20260901145548 89 127 0.0 1.0 0.00 0.00 0.00 72 1021.5
20260901145042 89 86 1.0 1.0 0.00 0.00 0.00 73 1021.5
20260901144538 88 59 0.0 1.0 0.00 0.00 0.00 75 1021.7
20260901144027 89 32 2.0 3.0 0.00 0.00 0.00 72 1021.6
20260901143523 88 157 2.0 2.0 0.00 0.00 0.00 73 1021.6
20260901143020 89 150 0.0 0.0 0.00 0.00 0.00 74 1021.4
20260901142519 89 144 1.0 1.0 0.00 0.00 0.00 73 1021.3
20260901142014 88 130 1.0 1.0 0.00 0.00 0.00 73 1021.5
20260901141509 88 116 1.0 1.0 0.00 0.00 0.00 75 1021.3
20260901141004 88 48 1.0 2.0 0.00 0.00 0.00 75 1021.1
20260901140503 88 139 0.0 1.0 0.00 0.00 0.00 74 1021.3
20260901135956 89 137 0.0 0.0 0.00 0.00 0.00 73 1021.2
20260901135456 89 147 1.0 2.0 0.00 0.00 0.00 72 1021.4
20260901134952 88 128 0.0 0.0 0.00 0.00 0.00 74 1021.5
20260901134448 88 147 0.0 1.0 0.00 0.00 0.00 75 1021.4
20260901133947 87 144 1.0 1.0 0.00 0.00 0.00 77 1021.3
20260901133446 87 154 0.0 1.0 0.00 0.00 0.00 76 1021.2
20260901132946 87 123 0.0 0.0 0.00 0.00 0.00 77 1021.1
20260901132446 86 129 0.0 0.0 0.00 0.00 0.00 78 1021.1
20260901131945 86 173 0.0 0.0 0.00 0.00 0.00 78 1021.1
20260901131444 86 171 0.0 0.0 0.00 0.00 0.00 79 1021.3
20260901130940 86 126 1.0 2.0 0.00 0.00 0.00 79 1021.1
20260901130436 86 135 0.0 0.0 0.00 0.00 0.00 80 1021.3
20260901125933 86 135 0.0 1.0 0.00 0.00 0.00 79 1021.1
20260901125432 86 146 0.0 1.0 0.00 0.00 0.00 81 1021.0
20260901124926 86 125 0.0 0.0 0.00 0.00 0.00 82 1021.2
20260901124422 84 150 0.0 0.0 0.00 0.00 0.00 84 1021.0
20260901123917 84 125 0.0 0.0 0.00 0.00 0.00 86 1021.1
20260901123413 83 149 0.0 0.0 0.00 0.00 0.00 90 1021.4
20260901122910 82 147 1.0 1.0 0.00 0.00 0.00 92 1021.2
20260901122405 81 145 0.0 0.0 0.00 0.00 0.00 94 1021.3
20260901121904 80 151 0.0 0.0 0.00 0.00 0.00 95 1021.0
20260901121359 80 150 0.0 0.0 0.00 0.00 0.00 95 1020.8
20260901120854 80 149 0.0 0.0 0.00 0.00 0.00 95 1021.2
20260901120349 79 140 0.0 0.0 0.00 0.00 0.00 95 1020.8
20260901115845 78 155 0.0 0.0 0.00 0.00 0.00 96 1020.8
20260901115339 77 150 0.0 0.0 0.00 0.00 0.00 96 1020.6
20260901114838 77 147 0.0 0.0 0.00 0.00 0.00 96 1020.5
20260901114338 76 147 0.0 0.0 0.00 0.00 0.00 96 1020.6
20260901113836 76 147 0.0 0.0 0.00 0.00 0.00 96 1020.6
20260901113335 76 147 0.0 0.0 0.00 0.00 0.00 96 1020.4
20260901112831 76 147 0.0 0.0 0.00 0.00 0.00 96 1020.7
20260901112330 75 147 0.0 0.0 0.00 0.00 0.00 96 1020.4
20260901111825 75 147 0.0 0.0 0.00 0.00 0.00 96 1020.2
20260901111324 76 147 0.0 0.0 0.00 0.00 0.00 96 1020.4
20260901110823 76 147 0.0 0.0 0.00 0.00 0.00 96 1020.1
20260901110319 76 147 0.0 0.0 0.00 0.00 0.00 96 1020.1
20260901105815 76 147 0.0 0.0 0.00 0.00 0.00 96 1020.1
20260901105315 76 147 0.0 0.0 0.00 0.00 0.00 96 1020.1
20260901104811 76 147 0.0 0.0 0.00 0.00 0.00 96 1019.8
20260901104306 76 147 0.0 0.0 0.00 0.00 0.00 96 1019.8
20260901103801 76 147 0.0 0.0 0.00 0.00 0.00 96 1019.8
20260901103255 76 147 0.0 0.0 0.00 0.00 0.00 96 1019.8
20260901102751 76 147 0.0 0.0 0.00 0.00 0.00 96 1019.9
20260901102250 76 147 0.0 0.0 0.00 0.00 0.00 96 1019.7
20260901101746 75 147 0.0 0.0 0.00 0.00 0.00 96 1019.8
20260901101245 76 147 0.0 0.0 0.00 0.00 0.00 96 1019.9
20260901100745 76 147 0.0 0.0 0.00 0.00 0.00 96 1019.7
20260901100240 75 147 0.0 0.0 0.00 0.00 0.00 96 1019.9
20260901095738 76 147 0.0 0.0 0.00 0.00 0.00 96 1019.6
20260901095236 76 147 0.0 0.0 0.00 0.00 0.00 96 1019.7
20260901094731 76 147 0.0 0.0 0.00 0.00 0.00 96 1019.5
20260901094226 76 147 0.0 0.0 0.00 0.00 0.00 96 1019.8
20260901093721 76 147 0.0 0.0 0.00 0.00 0.00 96 1019.7
20260901093220 76 147 0.0 0.0 0.00 0.00 0.00 96 1019.8
20260901092716 76 147 0.0 0.0 0.00 0.00 0.00 96 1019.6
20260901092212 76 147 0.0 0.0 0.00 0.00 0.00 96 1019.7
20260901091707 76 147 0.0 0.0 0.00 0.00 0.00 96 1019.5
20260901091202 76 147 0.0 0.0 0.00 0.00 0.00 96 1019.9
20260901090656 76 147 0.0 0.0 0.00 0.00 0.00 96 1019.5
20260901090152 76 147 0.0 0.0 0.00 0.00 0.00 96 1019.6
20260901085648 76 147 0.0 0.0 0.00 0.00 0.00 96 1019.6
20260901085143 76 147 0.0 0.0 0.00 0.00 0.00 96 1019.7
20260901084639 76 147 0.0 0.0 0.00 0.00 0.00 96 1019.4
20260901084135 76 147 0.0 0.0 0.00 0.00 0.00 96 1019.8
20260901083630 76 147 0.0 0.0 0.00 0.00 0.00 96 1019.6
20260901083128 76 147 0.0 0.0 0.00 0.00 0.00 96 1019.7
20260901082623 76 147 0.0 0.0 0.00 0.00 0.00 96 1019.7
20260901082118 76 147 0.0 0.0 0.00 0.00 0.00 96 1019.7
20260901081613 76 147 0.0 0.0 0.00 0.00 0.00 96 1019.4
20260901081114 77 147 0.0 0.0 0.00 0.00 0.00 96 1019.7
20260901080608 77 147 0.0 0.0 0.00 0.00 0.00 96 1019.6
20260901080107 77 147 0.0 0.0 0.00 0.00 0.00 96 1019.6
20260901075603 77 147 0.0 0.0 0.00 0.00 0.00 96 1020.0
20260901075102 77 147 0.0 0.0 0.00 0.00 0.00 96 1019.7
20260901074601 77 147 0.0 0.0 0.00 0.00 0.00 96 1019.6
20260901074057 77 146 0.0 0.0 0.00 0.00 0.00 96 1020.0
20260901073554 77 146 0.0 0.0 0.00 0.00 0.00 96 1020.0
20260901073053 77 149 0.0 0.0 0.00 0.00 0.00 96 1019.9
20260901072549 77 149 0.0 0.0 0.00 0.00 0.00 96 1020.0
20260901072043 77 149 0.0 0.0 0.00 0.00 0.00 96 1020.2
20260901071538 77 149 0.0 0.0 0.00 0.00 0.00 96 1020.2
20260901071036 77 149 0.0 0.0 0.00 0.00 0.00 95 1020.1
20260901070532 77 148 0.0 0.0 0.00 0.00 0.00 95 1020.2
20260901070027 77 148 0.0 0.0 0.00 0.00 0.00 95 1020.2
20260901065521 77 149 0.0 0.0 0.00 0.00 0.00 95 1020.1
20260901065016 77 167 0.0 0.0 0.00 0.00 0.00 96 1019.9
20260901064513 77 167 0.0 0.0 0.00 0.00 0.00 96 1020.2
20260901064009 77 165 0.0 0.0 0.00 0.00 0.00 96 1020.3
20260901063506 77 164 0.0 0.0 0.00 0.00 0.00 96 1020.1
20260901063001 77 164 0.0 0.0 0.00 0.00 0.00 95 1020.4
20260901062457 77 164 0.0 0.0 0.00 0.00 0.00 96 1020.4
20260901061953 77 164 0.0 0.0 0.00 0.00 0.00 96 1020.3
20260901061449 77 164 0.0 0.0 0.00 0.00 0.00 96 1020.1
20260901060948 77 164 0.0 0.0 0.00 0.00 0.00 96 1020.5
20260901060438 77 164 0.0 0.0 0.00 0.00 0.00 96 1020.6
20260901055938 77 164 0.0 0.0 0.00 0.00 0.00 96 1020.7
20260901055434 77 164 0.0 0.0 0.00 0.00 0.00 96 1020.8
20260901054931 77 164 0.0 0.0 0.00 0.00 0.00 96 1020.6
20260901054428 77 164 0.0 0.0 0.00 0.00 0.00 96 1020.9
20260901053924 77 164 0.0 0.0 0.00 0.00 0.00 95 1021.1
20260901053419 77 164 0.0 0.0 0.00 0.00 0.00 96 1021.2
20260901052914 77 164 0.0 0.0 0.00 0.00 0.00 95 1021.0
20260901052409 77 164 0.0 0.0 0.00 0.00 0.00 95 1021.1
20260901051908 77 164 0.0 0.0 0.00 0.00 0.00 95 1021.1
20260901051403 77 164 0.0 0.0 0.00 0.00 0.00 96 1021.2
20260901050858 78 164 0.0 0.0 0.00 0.00 0.00 96 1021.3
20260901050354 78 164 0.0 0.0 0.00 0.00 0.00 95 1021.2
20260901045848 78 164 0.0 0.0 0.00 0.00 0.00 95 1021.2
20260901045348 78 164 0.0 0.0 0.00 0.00 0.00 95 1021.2
20260901044844 78 165 0.0 0.0 0.00 0.00 0.00 95 1021.4
20260901044340 78 165 0.0 0.0 0.00 0.00 0.00 95 1021.4
20260901043835 78 165 0.0 0.0 0.00 0.00 0.00 95 1021.1
20260901043331 78 165 0.0 0.0 0.00 0.00 0.00 95 1021.1
20260901042830 78 165 0.0 0.0 0.00 0.00 0.00 95 1021.0
20260901042325 78 165 0.0 0.0 0.00 0.00 0.00 95 1021.3
20260901041821 78 165 0.0 0.0 0.00 0.00 0.00 95 1021.1
20260901041316 78 165 0.0 0.0 0.00 0.00 0.00 95 1021.2
20260901040810 78 165 0.0 0.0 0.00 0.00 0.00 95 1021.3
20260901040309 78 165 0.0 0.0 0.00 0.00 0.00 95 1021.3
20260901035809 78 165 0.0 0.0 0.00 0.07 0.07 95 1021.1
20260901035307 78 165 0.0 0.0 0.00 0.07 0.07 94 1021.3
20260901034806 78 165 0.0 0.0 0.00 0.07 0.07 94 1021.3
20260901034301 79 165 0.0 0.0 0.00 0.07 0.07 94 1021.1
20260901033756 79 165 0.0 0.0 0.00 0.07 0.07 94 1021.3
20260901033255 79 165 0.0 0.0 0.00 0.07 0.07 94 1021.3
20260901032754 79 165 0.0 0.0 0.00 0.07 0.07 94 1021.5
20260901032253 79 165 0.0 0.0 0.00 0.07 0.07 94 1021.3
20260901031749 79 165 0.0 0.0 0.00 0.07 0.07 94 1021.3
20260901031244 79 165 0.0 0.0 0.00 0.07 0.07 93 1021.7
20260901030739 79 165 0.0 0.0 0.00 0.07 0.07 93 1021.4
20260901030234 79 164 0.0 0.0 0.00 0.07 0.07 93 1021.5
20260901025728 80 162 0.0 0.0 0.00 0.07 0.07 93 1021.6
20260901025223 80 155 0.0 0.0 0.00 0.07 0.07 93 1021.2
20260901024723 80 160 0.0 0.0 0.00 0.07 0.07 92 1021.5
20260901024222 80 161 0.0 0.0 0.00 0.07 0.07 92 1021.4
20260901023715 80 149 0.0 0.0 0.00 0.07 0.07 92 1021.5
20260901023210 80 152 0.0 0.0 0.00 0.07 0.07 92 1021.6
20260901022706 80 158 0.0 0.0 0.00 0.07 0.07 92 1021.7
20260901022201 80 158 0.0 0.0 0.00 0.07 0.07 92 1021.6
20260901021656 80 152 0.0 0.0 0.00 0.07 0.07 92 1021.6
20260901021151 80 151 0.0 0.0 0.00 0.07 0.07 92 1021.5
20260901020647 80 157 0.0 0.0 0.00 0.07 0.07 91 1021.4
20260901020142 80 148 0.0 0.0 0.00 0.07 0.07 91 1021.3
20260901015637 80 162 0.0 0.0 0.00 0.07 0.07 91 1021.5
20260901015137 80 153 0.0 0.0 0.00 0.07 0.07 91 1021.3
20260901014632 80 143 0.0 0.0 0.00 0.07 0.07 91 1021.0
20260901014128 80 145 0.0 1.0 0.00 0.07 0.07 91 1021.2
20260901013624 80 149 0.0 0.0 0.00 0.07 0.07 91 1021.1
20260901013119 80 146 0.0 0.0 0.00 0.07 0.07 91 1021.1
20260901012619 80 154 0.0 0.0 0.00 0.07 0.07 91 1021.1
20260901012114 80 144 0.0 0.0 0.00 0.07 0.07 91 1021.0
20260901011610 80 147 0.0 0.0 0.00 0.07 0.07 91 1021.0
20260901011108 81 148 0.0 0.0 0.00 0.07 0.07 91 1020.7
20260901010603 81 156 0.0 0.0 0.00 0.07 0.07 91 1020.6
20260901005557 81 139 0.0 0.0 0.00 0.07 0.07 90 1020.7
20260901005052 81 151 0.0 0.0 0.00 0.07 0.07 90 1020.6
20260901004551 81 154 0.0 0.0 0.00 0.07 0.07 90 1020.8
20260901004047 81 152 0.0 0.0 0.00 0.07 0.07 90 1020.6
20260901003542 81 147 0.0 0.0 0.00 0.07 0.07 90 1020.5
20260901003040 81 127 0.0 1.0 0.00 0.07 0.07 89 1020.3
20260901002539 81 148 0.0 1.0 0.00 0.07 0.07 89 1020.2
20260901002035 81 148 0.0 0.0 0.00 0.07 0.07 89 1020.4
20260901001530 81 148 0.0 0.0 0.00 0.07 0.07 88 1020.5
20260901001025 81 140 0.0 0.0 0.00 0.07 0.07 88 1020.6
20260901000519 81 141 0.0 1.0 0.00 0.07 0.07 88 1020.5
20260901000015 81 131 0.0 0.0 0.00 0.07 0.07 87 1020.4
20260831235509 81 153 0.0 0.0 0.00 0.07 0.07 87 1020.4
20260831235005 81 109 1.0 2.0 0.00 0.07 0.07 87 1020.2
20260831234459 82 159 1.0 1.0 0.00 0.07 0.07 87 1020.2
20260831233955 82 144 0.0 0.0 0.00 0.07 0.07 86 1020.0
20260831233449 82 140 0.0 1.0 0.00 0.07 0.07 86 1020.2
20260831232945 82 152 0.0 0.0 0.00 0.07 0.07 86 1020.3
20260831232441 82 142 1.0 1.0 0.00 0.07 0.07 86 1020.3
20260831231936 82 125 0.0 0.0 0.00 0.07 0.07 86 1020.3
20260831231433 83 141 0.0 0.0 0.00 0.07 0.07 85 1020.3
20260831230928 83 149 0.0 0.0 0.00 0.07 0.07 84 1020.6
20260831230422 83 137 0.0 0.0 0.00 0.07 0.07 84 1020.4
20260831225917 83 138 0.0 0.0 0.00 0.07 0.07 83 1020.4
20260831225413 83 151 0.0 0.0 0.00 0.07 0.07 82 1020.6
20260831224907 83 149 0.0 0.0 0.00 0.07 0.07 82 1020.5
20260831224402 84 125 0.0 1.0 0.00 0.07 0.07 81 1020.7
20260831223856 84 145 2.0 2.0 0.00 0.07 0.07 80 1020.5
20260831223352 85 130 0.0 0.0 0.00 0.07 0.07 78 1020.5
20260831222849 86 60 5.0 9.0 0.00 0.07 0.07 77 1020.5
20260831222344 86 131 1.0 1.0 0.00 0.07 0.07 77 1020.6
20260831221839 85 145 1.0 2.0 0.00 0.07 0.07 78 1020.4
20260831221335 86 121 1.0 1.0 0.00 0.07 0.07 78 1020.5
20260831220830 85 119 3.0 3.0 0.00 0.07 0.07 78 1020.5
20260831220325 85 131 1.0 1.0 0.00 0.07 0.07 80 1020.6
20260831215820 85 145 0.0 1.0 0.00 0.07 0.07 81 1020.5
20260831215316 86 138 1.0 1.0 0.00 0.07 0.07 79 1020.6
20260831214812 86 147 0.0 1.0 0.00 0.07 0.07 78 1020.9
20260831214310 86 93 1.0 3.0 0.00 0.07 0.07 78 1020.6
20260831213805 86 156 2.0 2.0 0.00 0.07 0.07 77 1020.7
20260831213301 86 129 1.0 1.0 0.00 0.07 0.07 78 1020.7
20260831212756 87 60 5.0 6.0 0.00 0.07 0.07 77 1020.1
20260831212253 88 161 1.0 1.0 0.00 0.07 0.07 77 1020.5
20260831211751 88 148 1.0 2.0 0.00 0.07 0.07 77 1020.4
20260831211246 88 128 1.0 2.0 0.00 0.07 0.07 77 1020.6
20260831210740 87 109 2.0 3.0 0.00 0.07 0.07 78 1020.4
20260831210236 86 127 1.0 2.0 0.00 0.07 0.07 79 1020.4
20260831205735 86 122 0.0 1.0 0.00 0.07 0.07 80 1020.7
20260831205232 86 81 2.0 2.0 0.00 0.07 0.07 80 1020.6
20260831204726 85 134 0.0 1.0 0.00 0.07 0.07 82 1020.8
20260831204226 84 147 1.0 1.0 0.00 0.07 0.07 83 1020.7
20260831203725 84 102 3.0 5.0 0.00 0.07 0.07 83 1020.9
20260831203225 84 156 1.0 1.0 0.00 0.07 0.07 84 1020.8
20260831202723 84 133 2.0 3.0 0.00 0.07 0.07 83 1020.9
20260831202218 84 113 1.0 1.0 0.00 0.07 0.07 83 1020.7
20260831201713 84 135 1.0 1.0 0.00 0.07 0.07 83 1020.7